Time,TemperatureF,DewpointF,PressureIn,WindDirection,WindDirectionDegrees,WindSpeedMPH,WindSpeedGustMPH,Humidity,HourlyPrecipIn,Conditions,Clouds,dailyrainin,SoftwareType,DateUTC
2013-07-20 00:02:00,73.0,72.0,30.00,South,176,0.0,7.0,98,0.00,,,0.00,,2013-07-20 05:02:00,
2013-07-20 00:12:00,73.0,72.0,30.00,SSW,206,0.0,1.0,98,0.00,,,0.00,,2013-07-20 05:12:00,
2013-07-20 00:22:00,72.0,72.0,29.99,SSW,208,0.0,2.0,99,0.00,,,0.00,,2013-07-20 05:22:00,
2013-07-20 00:32:00,72.0,72.0,29.99,SSW,208,0.0,0.0,100,0.00,,,0.00,,2013-07-20 05:32:00,
2013-07-20 00:52:00,72.0,72.0,29.99,SW,229,0.0,1.0,100,0.00,,,0.00,,2013-07-20 05:52:00,
2013-07-20 01:01:00,72.0,72.0,29.99,SW,218,0.0,0.0,100,0.00,,,0.00,,2013-07-20 06:01:00,
2013-07-20 01:11:00,71.0,71.0,29.98,South,184,0.0,2.0,100,0.00,,,0.00,,2013-07-20 06:11:00,
2013-07-20 01:21:00,71.0,71.0,29.98,SSW,209,0.0,2.0,100,0.00,,,0.00,,2013-07-20 06:21:00,
2013-07-20 01:32:00,71.0,71.0,29.99,SSW,210,0.0,0.0,100,0.00,,,0.00,,2013-07-20 06:32:00,
2013-07-20 01:43:00,71.0,71.0,29.98,SSW,210,0.0,0.0,100,0.00,,,0.00,,2013-07-20 06:43:00,
2013-07-20 01:52:00,71.0,71.0,29.99,WSW,243,0.0,4.0,100,0.00,,,0.00,,2013-07-20 06:52:00,
2013-07-20 02:01:00,71.0,71.0,29.99,WSW,248,0.0,5.0,100,0.00,,,0.00,,2013-07-20 07:01:00,
2013-07-20 02:12:00,71.0,71.0,29.99,SW,228,1.0,5.0,100,0.00,,,0.00,,2013-07-20 07:12:00,
2013-07-20 02:22:00,71.0,71.0,30.00,SW,221,0.0,6.0,100,0.00,,,0.00,,2013-07-20 07:22:00,
2013-07-20 02:33:00,70.0,70.0,29.99,WSW,237,0.0,0.0,100,0.00,,,0.00,,2013-07-20 07:33:00,
2013-07-20 02:44:00,70.0,70.0,29.98,SW,217,0.0,5.0,100,0.00,,,0.00,,2013-07-20 07:44:00,
2013-07-20 02:53:00,70.0,70.0,29.98,SW,228,0.0,3.0,100,0.00,,,0.00,,2013-07-20 07:53:00,
2013-07-20 03:01:00,70.0,70.0,29.98,West,259,0.0,0.0,100,0.00,,,0.00,,2013-07-20 08:01:00,
2013-07-20 03:11:00,71.0,71.0,29.98,West,272,0.0,2.0,100,0.00,,,0.00,,2013-07-20 08:11:00,
2013-07-20 03:22:00,71.0,71.0,29.98,SW,218,0.0,5.0,100,0.00,,,0.00,,2013-07-20 08:22:00,
2013-07-20 03:32:00,71.0,71.0,29.97,SSW,213,1.0,7.0,100,0.00,,,0.00,,2013-07-20 08:32:00,
2013-07-20 03:44:00,71.0,71.0,29.97,WSW,252,0.0,7.0,100,0.00,,,0.00,,2013-07-20 08:44:00,
2013-07-20 03:52:00,71.0,71.0,29.98,SSW,211,0.0,7.0,100,0.00,,,0.00,,2013-07-20 08:52:00,
2013-07-20 04:02:00,71.0,71.0,29.97,West,267,0.0,6.0,100,0.00,,,0.00,,2013-07-20 09:02:00,
2013-07-20 04:11:00,71.0,71.0,29.98,WSW,251,0.0,5.0,100,0.00,,,0.00,,2013-07-20 09:11:00,
2013-07-20 04:22:00,71.0,71.0,29.98,West,269,1.0,5.0,100,0.00,,,0.00,,2013-07-20 09:22:00,
2013-07-20 04:33:00,71.0,71.0,29.98,West,264,0.0,4.0,100,0.00,,,0.00,,2013-07-20 09:33:00,
2013-07-20 04:43:00,71.0,71.0,29.98,West,269,0.0,5.0,100,0.00,,,0.00,,2013-07-20 09:43:00,
2013-07-20 04:53:00,71.0,71.0,29.98,West,261,0.0,6.0,100,0.00,,,0.00,,2013-07-20 09:53:00,
2013-07-20 05:01:00,71.0,71.0,29.98,WSW,258,0.0,5.0,100,0.00,,,0.00,,2013-07-20 10:01:00,
2013-07-20 05:11:00,71.0,71.0,29.98,West,267,0.0,4.0,100,0.00,,,0.00,,2013-07-20 10:11:00,
2013-07-20 05:22:00,71.0,71.0,29.99,WSW,248,1.0,7.0,100,0.00,,,0.00,,2013-07-20 10:22:00,
2013-07-20 05:32:00,71.0,71.0,29.98,West,275,1.0,7.0,100,0.00,,,0.00,,2013-07-20 10:32:00,
2013-07-20 05:42:00,71.0,71.0,29.99,West,268,2.0,9.0,100,0.00,,,0.00,,2013-07-20 10:42:00,
2013-07-20 05:52:00,71.0,71.0,29.98,West,277,1.0,7.0,100,0.00,,,0.00,,2013-07-20 10:52:00,
2013-07-20 06:01:00,71.0,71.0,29.99,West,273,0.0,6.0,100,0.00,,,0.00,,2013-07-20 11:01:00,
2013-07-20 06:11:00,71.0,71.0,29.98,WSW,243,1.0,5.0,100,0.00,,,0.00,,2013-07-20 11:11:00,
2013-07-20 06:22:00,71.0,71.0,29.99,West,268,0.0,6.0,100,0.00,,,0.00,,2013-07-20 11:22:00,
2013-07-20 06:32:00,70.0,70.0,29.99,WSW,252,1.0,5.0,100,0.00,,,0.00,,2013-07-20 11:32:00,
2013-07-20 06:43:00,70.0,70.0,29.99,WSW,254,0.0,7.0,100,0.00,,,0.00,,2013-07-20 11:43:00,
2013-07-20 06:52:00,70.0,70.0,29.99,WNW,286,0.0,7.0,100,0.00,,,0.00,,2013-07-20 11:52:00,
2013-07-20 07:01:00,71.0,71.0,29.98,WNW,284,1.0,7.0,100,0.00,,,0.00,,2013-07-20 12:01:00,
2013-07-20 07:11:00,71.0,71.0,29.99,WSW,243,0.0,7.0,100,0.00,,,0.00,,2013-07-20 12:11:00,
2013-07-20 07:22:00,71.0,71.0,29.98,WNW,283,0.0,6.0,100,0.00,,,0.00,,2013-07-20 12:22:00,
2013-07-20 07:32:00,72.0,72.0,29.98,WSW,245,1.0,8.0,100,0.00,,,0.00,,2013-07-20 12:32:00,
2013-07-20 07:52:00,73.0,72.0,29.98,WSW,258,2.0,9.0,98,0.00,,,0.00,,2013-07-20 12:52:00,
2013-07-20 08:01:00,73.0,72.0,29.99,West,268,0.0,11.0,97,0.00,,,0.00,,2013-07-20 13:01:00,
2013-07-20 08:11:00,74.0,73.0,29.98,West,267,2.0,7.0,96,0.00,,,0.00,,2013-07-20 13:11:00,
2013-07-20 08:22:00,75.0,73.0,29.98,West,271,3.0,12.0,94,0.00,,,0.00,,2013-07-20 13:22:00,
2013-07-20 08:32:00,75.0,73.0,29.98,West,262,3.0,9.0,92,0.00,,,0.00,,2013-07-20 13:32:00,
2013-07-20 08:43:00,76.0,73.0,29.98,WNW,297,1.0,9.0,90,0.00,,,0.00,,2013-07-20 13:43:00,
2013-07-20 08:53:00,77.0,74.0,29.99,SW,232,1.0,8.0,90,0.00,,,0.00,,2013-07-20 13:53:00,
2013-07-20 09:02:00,78.0,74.0,29.99,West,279,0.0,8.0,88,0.00,,,0.00,,2013-07-20 14:02:00,
2013-07-20 09:11:00,78.0,74.0,30.00,WNW,297,1.0,7.0,87,0.00,,,0.00,,2013-07-20 14:11:00,
2013-07-20 09:22:00,79.0,74.0,30.00,West,268,0.0,9.0,86,0.00,,,0.00,,2013-07-20 14:22:00,
2013-07-20 09:32:00,79.0,74.0,30.00,WNW,282,0.0,7.0,86,0.00,,,0.00,,2013-07-20 14:32:00,
2013-07-20 09:43:00,80.0,75.0,30.00,NW,304,0.0,7.0,85,0.00,,,0.00,,2013-07-20 14:43:00,
2013-07-20 09:53:00,80.0,75.0,30.00,West,259,1.0,8.0,84,0.00,,,0.00,,2013-07-20 14:53:00,
2013-07-20 10:01:00,81.0,76.0,29.99,WSW,238,0.0,5.0,84,0.00,,,0.00,,2013-07-20 15:01:00,
2013-07-20 10:11:00,81.0,76.0,30.00,WNW,283,0.0,8.0,84,0.00,,,0.00,,2013-07-20 15:11:00,
2013-07-20 10:22:00,82.0,76.0,30.00,NW,318,2.0,7.0,82,0.00,,,0.00,,2013-07-20 15:22:00,
2013-07-20 10:33:00,83.0,77.0,30.00,West,272,2.0,7.0,82,0.00,,,0.00,,2013-07-20 15:33:00,
2013-07-20 10:44:00,83.0,76.0,30.00,WSW,239,2.0,9.0,80,0.00,,,0.00,,2013-07-20 15:44:00,
2013-07-20 10:53:00,83.0,77.0,29.99,WNW,283,0.0,6.0,81,0.00,,,0.00,,2013-07-20 15:53:00,
2013-07-20 11:01:00,84.0,77.0,30.00,NW,318,2.0,7.0,79,0.00,,,0.00,,2013-07-20 16:01:00,
2013-07-20 11:11:00,84.0,77.0,29.99,West,269,0.0,10.0,80,0.00,,,0.00,,2013-07-20 16:11:00,
2013-07-20 11:22:00,85.0,78.0,30.00,SW,227,0.0,8.0,79,0.00,,,0.00,,2013-07-20 16:22:00,
2013-07-20 11:32:00,85.0,77.0,29.99,WNW,283,0.0,-999.0,78,-99.99,,,-99.99,,2013-07-20 16:32:00,
2013-07-20 11:43:00,86.0,78.0,29.99,West,269,4.0,-999.0,76,-99.99,,,-99.99,,2013-07-20 16:43:00,
2013-07-20 11:52:00,86.0,78.0,29.99,WNW,298,0.0,-999.0,76,-99.99,,,-99.99,,2013-07-20 16:52:00,
2013-07-20 12:02:00,87.0,78.0,29.99,West,266,0.0,-999.0,75,-99.99,,,-99.99,,2013-07-20 17:02:00,
2013-07-20 12:11:00,87.0,77.0,29.99,WSW,258,0.0,-999.0,73,-99.99,,,-99.99,,2013-07-20 17:11:00,
2013-07-20 12:22:00,87.0,78.0,29.98,WSW,256,0.0,-999.0,75,-99.99,,,-99.99,,2013-07-20 17:22:00,
2013-07-20 12:32:00,87.0,77.0,29.99,WNW,285,5.0,-999.0,73,-99.99,,,-99.99,,2013-07-20 17:32:00,
2013-07-20 12:43:00,87.0,77.0,29.98,WNW,290,0.0,-999.0,72,-99.99,,,-99.99,,2013-07-20 17:43:00,
2013-07-20 12:53:00,88.0,78.0,29.98,SW,234,0.0,-999.0,72,-99.99,,,-99.99,,2013-07-20 17:53:00,
2013-07-20 13:01:00,89.0,78.0,29.98,WSW,238,2.0,-999.0,70,-99.99,,,-99.99,,2013-07-20 18:01:00,
2013-07-20 13:11:00,89.0,77.0,29.98,WNW,286,0.0,-999.0,69,-99.99,,,-99.99,,2013-07-20 18:11:00,
2013-07-20 13:24:00,89.0,77.0,29.97,WSW,246,0.0,-999.0,67,-99.99,,,-99.99,,2013-07-20 18:24:00,
2013-07-20 13:45:00,89.0,76.0,29.97,WSW,246,7.0,-999.0,66,-99.99,,,-99.99,,2013-07-20 18:45:00,
2013-07-20 13:55:00,86.0,74.0,29.96,NNE,24,0.0,-999.0,68,-99.99,,,-99.99,,2013-07-20 18:55:00,
2013-07-20 14:05:00,81.0,70.0,29.97,North,5,10.0,-999.0,70,-99.99,,,-99.99,,2013-07-20 19:05:00,
2013-07-20 14:14:00,81.0,71.0,29.96,North,2,0.0,-999.0,71,-99.99,,,-99.99,,2013-07-20 19:14:00,
2013-07-20 15:06:00,82.0,72.0,29.95,NE,46,2.0,6.0,71,0.00,,,0.00,,2013-07-20 20:06:00,
2013-07-20 15:14:00,84.0,73.0,29.95,ENE,76,5.0,7.0,70,0.00,,,0.00,,2013-07-20 20:14:00,
2013-07-20 15:33:00,83.0,74.0,29.94,ESE,106,7.0,15.0,74,0.00,,,0.00,,2013-07-20 20:33:00,
2013-07-20 15:45:00,82.0,74.0,29.93,SE,124,2.0,10.0,77,0.00,,,0.00,,2013-07-20 20:45:00,
2013-07-20 15:55:00,82.0,74.0,29.93,ESE,118,1.0,12.0,76,0.00,,,0.00,,2013-07-20 20:55:00,
2013-07-20 16:26:00,86.0,75.0,29.92,SW,216,1.0,6.0,69,0.00,,,0.00,,2013-07-20 21:26:00,
2013-07-20 16:44:00,87.0,76.0,29.90,SE,126,0.0,10.0,69,0.00,,,0.00,,2013-07-20 21:44:00,
2013-07-20 16:55:00,86.0,74.0,29.89,SSW,206,1.0,11.0,68,0.00,,,0.00,,2013-07-20 21:55:00,
2013-07-20 17:05:00,86.0,72.0,29.88,SSW,192,2.0,12.0,64,0.00,,,0.00,,2013-07-20 22:05:00,
2013-07-20 17:25:00,85.0,72.0,29.88,South,185,2.0,10.0,65,0.00,,,0.00,,2013-07-20 22:25:00,
2013-07-20 17:33:00,86.0,74.0,29.89,South,177,1.0,10.0,67,0.00,,,0.00,,2013-07-20 22:33:00,
2013-07-20 17:47:00,88.0,75.0,29.90,SSW,199,1.0,-999.0,65,-99.99,,,-99.99,,2013-07-20 22:47:00,
2013-07-20 17:54:00,88.0,75.0,29.90,South,184,0.0,-999.0,65,-99.99,,,-99.99,,2013-07-20 22:54:00,
2013-07-20 18:04:00,89.0,75.0,29.90,South,173,0.0,-999.0,63,-99.99,,,-99.99,,2013-07-20 23:04:00,
2013-07-20 18:16:00,89.0,75.0,29.89,SW,216,0.0,-999.0,63,-99.99,,,-99.99,,2013-07-20 23:16:00,
2013-07-20 18:27:00,89.0,75.0,29.89,SW,224,1.0,-999.0,63,-99.99,,,-99.99,,2013-07-20 23:27:00,
2013-07-20 18:36:00,88.0,73.0,29.88,South,170,0.0,-999.0,62,-99.99,,,-99.99,,2013-07-20 23:36:00,
2013-07-20 18:44:00,87.0,72.0,29.88,SW,222,0.0,-999.0,62,-99.99,,,-99.99,,2013-07-20 23:44:00,
2013-07-20 19:06:00,83.0,72.0,29.89,South,183,0.0,-999.0,70,-99.99,,,-99.99,,2013-07-21 00:06:00,
2013-07-20 19:16:00,81.0,72.0,29.90,SSE,160,0.0,-999.0,75,-99.99,,,-99.99,,2013-07-21 00:16:00,
2013-07-20 19:23:00,80.0,72.0,29.91,South,170,7.0,-999.0,77,-99.99,,,-99.99,,2013-07-21 00:23:00,
2013-07-20 19:43:00,79.0,73.0,29.92,SSW,204,4.0,-999.0,82,-99.99,,,-99.99,,2013-07-21 00:43:00,
2013-07-20 19:55:00,78.0,73.0,29.94,SSE,162,0.0,-999.0,84,-99.99,,,-99.99,,2013-07-21 00:55:00,
2013-07-20 20:06:00,78.0,73.0,29.96,NW,313,1.0,-999.0,84,-99.99,,,-99.99,,2013-07-21 01:06:00,
2013-07-20 20:12:00,78.0,73.0,29.99,NNE,20,11.0,-999.0,84,-99.99,,,-99.99,,2013-07-21 01:12:00,
2013-07-20 20:26:00,72.0,71.0,30.01,North,349,16.0,-999.0,98,-99.99,,,-99.99,,2013-07-21 01:26:00,
2013-07-20 20:36:00,69.0,69.0,30.02,NNW,329,2.0,-999.0,100,-99.99,,,-99.99,,2013-07-21 01:36:00,
2013-07-20 20:45:00,-999.0,-99.9,30.03,West,276,0.0,-999.0,-999,-99.99,,,-99.99,,2013-07-21 01:45:00,
2013-07-20 21:05:00,67.0,67.0,30.01,SE,131,0.0,-999.0,100,-99.99,,,-99.99,,2013-07-21 02:05:00,
2013-07-20 21:16:00,67.0,67.0,30.00,ESE,114,3.0,-999.0,100,-99.99,,,-99.99,,2013-07-21 02:16:00,
2013-07-20 21:36:00,68.0,68.0,29.98,SE,132,0.0,-999.0,100,-99.99,,,-99.99,,2013-07-21 02:36:00,
2013-07-20 21:44:00,68.0,68.0,29.98,ESE,114,2.0,6.0,100,-99.99,,,-99.99,,2013-07-21 02:44:00,
2013-07-20 21:54:00,68.0,68.0,29.98,ESE,114,0.0,5.0,100,-99.99,,,-99.99,,2013-07-21 02:54:00,
2013-07-20 22:04:00,68.0,68.0,29.99,ENE,66,3.0,5.0,100,-99.99,,,-99.99,,2013-07-21 03:04:00,
2013-07-20 22:14:00,68.0,68.0,29.99,ENE,66,0.0,6.0,100,-99.99,,,-99.99,,2013-07-21 03:14:00,
2013-07-20 22:25:00,68.0,68.0,29.99,East,89,2.0,7.0,100,-99.99,,,-99.99,,2013-07-21 03:25:00,
2013-07-20 22:44:00,68.0,68.0,29.99,East,90,0.0,0.0,100,0.06,,,-99.99,,2013-07-21 03:44:00,
2013-07-20 22:55:00,68.0,68.0,29.98,East,90,0.0,0.0,100,0.07,,,-99.99,,2013-07-21 03:55:00,
2013-07-20 23:01:00,68.0,68.0,29.98,East,90,0.0,0.0,100,0.05,,,-99.99,,2013-07-21 04:01:00,
2013-07-20 23:11:00,68.0,68.0,29.97,East,90,0.0,0.0,100,0.00,,,0.02,,2013-07-21 04:11:00,
2013-07-20 23:22:00,68.0,68.0,29.97,South,191,0.0,0.0,100,0.00,,,0.02,,2013-07-21 04:22:00,
2013-07-20 23:32:00,68.0,68.0,29.97,SSW,205,1.0,4.0,100,0.00,,,0.02,,2013-07-21 04:32:00,
2013-07-20 23:43:00,68.0,68.0,29.97,WSW,245,0.0,7.0,100,0.01,,,0.03,,2013-07-21 04:43:00,
2013-07-20 23:53:00,68.0,68.0,29.97,SW,223,0.0,6.0,100,0.01,,,0.01,,2013-07-21 04:53:00,